Back to catalog

STARLINK-36986

AliveCommunicationsSSO
NORAD 68207·PAYLOAD·🇺🇸 United States

Launched Mar 17, 2026 from Vandenberg Space Force Base

Loading…

Next Passes (next 24 hours)

TLE

FreshSource: CelesTrak SupGP

Epoch: Sep 14, 2026, 14:35 UTC

1 68207C 26053A   26257.60812500  .00004521  00000+0  14035-3 0  2577
2 68207  97.2846 131.3903 0001799  88.0880 330.7330 15.33435918    11

Track STARLINK-36986 in real time with AllMySat

Download on the App Store